Other Public Products
Issued by NWS Grand Forks, ND

Home | Current Version | Previous Version | Text Only | Print | Product List | Glossary Off
Versions: 1 2 3 4 5 6 7 8 9 10 11 12 13 14 15 16 17 18 19 20 21 22 23 24 25 26 27 28 29 30 31 32 33 34 35 36 37 38 39 40 41 42 43 44 45 46 47 48 49 50

000
FPUS83 KFGF 270531
OPUFGF
PRAIRIE TO PINES WEATHER ROUNDUP
NATIONAL WEATHER SERVICE EASTERN NORTH DAKOTA/GRAND FORKS ND
1200 AM CDT TUE SEP 27 2016

 **SATELLITE DATA USED TO AUGMENT SKY COVER AT AUTOMATED STATIONS**
 *****  WEATHER ACROSS EASTERN NORTH DAKOTA  *****

CITY           SKY/WX    TMP DP  RH WIND       PRES   REMARKS
GRAND FORKS    CLEAR     43  38  82 W9        29.93F
GRAND FORKS AF CLEAR     43  36  77 NW8       29.94F
GRAND CITY NWS NOT AVBL
BUXTON           N/A     52  49  91 W3          N/A
DEVILS LAKE    CLEAR     46  37  71 NW10      29.99F
FARGO          CLEAR     47  34  60 W8        29.94S
WAHPETON ARPT  CLEAR     46  34  61 NW10      29.95S
$$

 *****  WEATHER ACROSS CENTRAL AND WESTERN NORTH DAKOTA  *****

CITY           SKY/WX    TMP DP  RH WIND       PRES   REMARKS
JAMESTOWN      CLEAR     44  38  79 W7        30.00F
BISMARCK       CLEAR     46  39  76 W6        30.07S
MINOT          CLEAR     47  38  71 CALM      30.03F
MINOT AFB      CLEAR     42  37  82 NW7       30.03S
GARRISON         N/A     45  38  76 NW7       30.05F
WILLISTON      CLEAR     44  39  82 NE3       30.07F
DICKINSON      CLOUDY    45  38  76 SW5       30.09F
HETTINGER      CLOUDY    47  40  76 CALM      30.13F
$$

 *****  OTHER OBSERVATIONS NORTHEAST NORTH DAKOTA  *****

CITY           SKY/WX    TMP DP  RH WIND       PRES   REMARKS
WALHALLA       FAIR      46  43  87 NW7       29.95S
LANGDON        FAIR      41  36  81 NW10      29.97S
CAVALIER       FAIR      45  41  87 NW7       29.94S
GRAFTON        FAIR      48  45  87 NW9       29.96R
CANDO          FAIR      41  36  81 W8        30.02R
FORT TOTTEN      N/A     53  37  54 NW6       29.95S
ROLLA          FAIR      48  32  53 NW13      30.02R
RUGBY          FAIR      43  36  75 NW6       30.02S
 ***** THE ABOVE OBSERVATIONS ARE NON NWS ARE NOT QUALITY
        CONTROLLED AND MAY MIS-REPORT RAIN FOR SNOW...
$$

 *****  OTHER OBSERVATIONS SOUTHEAST NORTH DAKOTA *****

CITY           SKY/WX    TMP DP  RH WIND       PRES   REMARKS
COOPERSTOWN    FAIR      43  37  81 W8        29.98S
VALLEY CITY    FAIR      46  37  71 NW12      30.00S
OAKES          NOT AVBL
GWINNER        FAIR      46  37  71 W10       30.00S
SHEYENNE NWR     N/A     49  35  58 NW7       29.95S
BUFFALO          N/A     49  32  51 NW10        N/A
WYNDMERE         N/A     48  37  66 W8          N/A
 ***** THE ABOVE OBSERVATIONS ARE NON NWS ARE NOT QUALITY
       CONTROLLED AND MAY MIS-REPORT RAIN FOR SNOW...
$$

  *****  WEATHER ACROSS NORTHERN MINNESOTA  *****

CITY           SKY/WX    TMP DP  RH WIND       PRES   REMARKS
FLAG ISLAND    MOCLDY    52  46  82 NW21G31   29.76S
WARROAD        CLOUDY    50  45  81 NW12G18   29.82F
ROSEAU         MOCLDY    52  45  76 NW13      29.84S
HALLOCK        CLEAR     46  45  93 NW10      29.91S
THF RVR FALLS  CLEAR     47  42  83 NW10      29.90F
HALSTAD          N/A     44  36  72 NW8         N/A
FOSSTON        CLEAR     45  39  81 NW9       29.89F
BAUDETTE       CLOUDY    50  45  83 NW17G24   29.77F
WASKISH        CLOUDY    50  45  81 NW15G24   29.79S
CROOKSTON      CLEAR     43  41  93 NW6       29.93S
$$
  *****  WEATHER ACROSS CENTRAL AND WEST MINNESOTA  *****

CITY           SKY/WX    TMP DP  RH WIND       PRES   REMARKS
BEMIDJI        PTCLDY    46  40  81 W10       29.83F
PARK RAPIDS    CLEAR     49  38  65 NW12      29.86F
WADENA         CLEAR     46  39  76 W5        29.89F
DETROIT LAKES  CLEAR     45  41  87 NW9       29.92F
MOORHEAD       CLEAR     46  34  61 NW8       29.95S
FERGUS FALLS   CLEAR     43  36  75 NW7       29.96R
ELBOW LAKE     FAIR      47  37  66 NW10      29.93S
MORRIS MN      CLEAR     50  36  57 W12       29.93S
STAPLES        CLEAR     46  39  76 W12       29.87F
WHEATON        CLEAR     52  39  62 W8        29.97F
$$
  *****  WEATHER ELSEWHERE ACROSS MINNESOTA  *****

CITY           SKY/WX    TMP DP  RH WIND       PRES   REMARKS
DULUTH         CLOUDY    52  44  74 NW14G30   29.69S
INTRNTL FALLS  CLOUDY    49  46  90 W12       29.69S
ELY            DRIZZLE   48  46  93 NW9       29.62S
CLOQUET        CLOUDY    54  41  62 W12G18    29.72S
BRAINERD       CLEAR     51  41  68 NW14G24   29.84F
HIBBING        CLOUDY    48  44  86 NW13G26   29.71F
ALEXANDRIA     CLEAR     49  34  56 W12       29.92F
SAINT CLOUD    CLEAR     51  38  60 W10       29.86F
MINNEAPOLIS    CLEAR     56  36  47 W12       29.86F
$$

  *****  WEATHER ACROSS SOUTH DAKOTA  *****

CITY           SKY/WX    TMP DP  RH WIND       PRES   REMARKS
SIOUX FALLS    CLEAR     51  35  54 W9        30.03F
BROOKINGS      CLEAR     46  36  68 NW7       30.02S
WATERTOWN      CLEAR     52  38  58 NW8       30.01F
HURON          CLEAR     44  35  70 NW6       30.05S
SISSETON         N/A     54  35  48 NW10      29.96F
ABERDEEN       CLEAR     47  36  65 NW5       30.03S
MITCHELL       CLEAR     50  38  63 W7        30.07S
PIERRE         CLEAR     52  39  61 W8        30.09S
MOBRIDGE       CLEAR     43  37  79 CALM      30.06F
RAPID CITY     CLOUDY    49  40  71 CALM      30.18F
$$

  *****  SOME WEATHER IN NEARBY STATES *****

CITY           SKY/WX    TMP DP  RH WIND       PRES   REMARKS
GLASGOW MT     CLEAR     50  45  83 E8        30.05F
GREAT FALLS MT CLEAR     59  40  49 SW9       30.08F
CHEYENNE WY    CLEAR     48  37  65 W9        30.36F
SCOTTSBLUFF NE CLEAR     52  44  74 CALM      30.25F
OMAHA NE       CLEAR     55  48  77 SE6       30.07S
DES MOINES IA  CLEAR     57  45  64 W6        30.02S
DAVENPORT IA   CLEAR     54  41  61 W8        29.96F
CHICAGO IL     CLEAR     57  36  45 W8        29.91F
EAU CLAIRE WI  CLOUDY    52  40  63 W10       29.78F
LA CROSSE WI   CLEAR     60  36  40 W16       29.84S
$$

  *****  SOME NATIONAL WEATHER *****

CITY           SKY/WX    TMP DP  RH WIND       PRES   REMARKS
LA GUARDIA NY  CLOUDY    71  61  70 S14       29.95F
RALEIGH NC     CLOUDY    72  68  87 SW9       30.03F
ATLANTA GA     CLOUDY    75  67  76 S5        30.04R
NEW ORLEANS LA MOCLDY    80  73  79 W7        29.98F
OKLAHOMA CITY  CLOUDY    60  50  69 NW5       30.19F
ALBUQUERQUE NM PTCLDY    60  34  37 SE9       30.34R
SALT LAKE CITY CLEAR     60  50  69 S3        30.25F
LOS ANGELES CA PTCLDY    77  53  43 W5        29.88S
BOISE ID       CLEAR     65  42  43 SE8       30.13S
SEATTLE WA     PTCLDY    66  56  70 NE9       30.07R
$$

*** WEATHER ACROSS MANITOBA...SASKATCHEWAN AND ONTARIO ***
                ***ONTARIO***

CITY           SKY/WX    TMP DP  RH WIND       PRES   REMARKS
GERALDTON      FOG       48  48 100 N6        29.34S VSB 1/4
THUNDER BAY    CLOUDY    52  46  82 W15       29.43F
SIOUX LOOKOUT  DRIZZLE   46  45  93 NW15G24   29.56S
TORONTO        CLEAR     54  46  76 SW9       29.83F
BIG TROUT LK   LGT RAIN  45  45 100 N9G18     29.52  FOG
PICKLE LAKE    NOT AVBL
DRYDEN         CLOUDY    46  43  87 NW16G30   29.63S
KENORA         LGT RAIN  48  46  93 NW16G24   29.72S
$$
                *** MANITOBA***

CITY           SKY/WX    TMP DP  RH WIND       PRES   REMARKS
BRANDON        CLEAR     39  34  81 NW8       30.00F
DAUPHIN        CLEAR     41  34  75 W9        29.98F
ISLAND LAKE    LGT RAIN  46  45  93 N20G35    29.78S
PILOT MOUND      N/A     43  34  70 NW9         N/A
THE PAS        CLEAR     50  41  71 N8        30.01R
THOMPSON       CLOUDY    46  39  76 N8G21     29.93S
WINNIPEG       MOCLDY    48  43  81 NW15      29.90
LYNN LAKE      CLEAR     37  36  93 NW7       30.01S
CHURCHILL      CLOUDY    45  41  87 N25G33    29.88R
GILLAM         CLOUDY    43  41  93 N18G25    29.85R
$$
                ***SASKATCHEWAN***

CITY           SKY/WX    TMP DP  RH WIND       PRES   REMARKS
ESTEVAN        CLEAR     45  41  87 VRB2      30.06S
KINDERSLEY     CLEAR     54  41  62 SE9       29.92F
LLOYDMINSTER   CLEAR     54  43  66 S12       29.87F
PRINCE ALBERT  CLEAR     39  36  87 NE3       29.98S
REGINA         CLEAR     43  37  81 SE7       30.04F
YORKTON        CLEAR     45  37  76 W7        30.02F  C1F1C2F2C3F3C4F4C5F5C6F6C7F7C8F8C9F9CaFaCbFbCcFcCdFdCe!



USA.gov is the U.S. government's official web portal to all federal, state and local government web resources and services.